Dewpoint
56 56 55 55 55 55 55 54 54 54 55 54 54 55 55 55 49 41 26 18 20 31 38 24 11 10 9 5 10 9 7 11 13 14 12 14 13 18 24 26 29 33 36 38 39
57 57 56 56 56 55 55 54 54 54 55 54 54 55 54 54 46 38 24 21 27 36 26 16 14 9 7 8 9 8 9 11 14 16 10 10 12 18 22 24 27 30 33 35 36
57 58 57 57 56 56 56 55 54 54 55 54 55 55 54 52 43 24 25 24 28 32 23 17 17 15 8 11 12 11 10 10 11 13 9 8 9 12 19 21 26 27 30 32 32
58 58 58 57 57 57 56 55 54 55 55 55 55 54 53 48 33 24 28 26 27 29 24 18 19 19 16 12 11 9 10 8 8 10 9 8 9 11 26 26 27 28 29 29 29
58 58 58 58 58 57 57 56 55 55 55 54 55 54 50 37 33 24 28 28 26 23 23 23 21 20 20 19 16 16 15 12 7 10 10 11 11 15 26 28 28 28 28 28 29
58 58 58 58 58 58 57 57 56 55 55 55 55 54 41 29 36 37 33 32 29 26 25 25 24 24 23 23 22 21 17 15 14 11 12 12 11 19 24 27 26 27 27 28 28
59 58 58 58 58 58 57 57 56 56 55 54 54 50 44 34 31 35 35 34 31 28 27 26 25 24 25 24 20 19 19 22 21 17 12 13 12 16 24 26 24 24 26 27 29
59 59 58 58 58 58 57 57 56 56 55 54 54 49 39 33 35 35 33 38 33 29 27 27 26 25 24 25 23 22 20 20 21 21 14 14 14 19 26 24 23 24 26 27 28
55 54 55 57 57 57 56 56 55 56 55 54 49 46 37 39 36 33 31 31 31 27 27 25 24 25 25 20 20 20 17 15 17 17 14 12 13 24 26 24 23 24 25 27 28
51 50 49 51 54 55 54 54 54 55 51 49 43 34 34 27 33 32 30 29 27 27 27 26 25 24 23 20 16 13 13 13 12 14 13 12 13 24 25 24 23 23 25 26 28
49 49 49 48 50 52 53 50 46 48 47 33 32 31 30 29 29 26 25 28 25 24 22 23 22 20 21 21 20 17 15 13 11 12 12 11 12 12 25 24 24 24 25 26 27
49 48 48 48 51 53 52 40 36 42 35 34 34 29 27 30 32 26 20 18 17 18 17 19 20 22 20 24 24 21 20 20 19 17 17 15 14 15 18 24 24 24 25 26 28
48 47 47 50 51 51 44 39 41 38 28 18 16 18 24 22 23 25 25 23 17 14 17 15 16 22 25 24 23 23 22 21 20 21 22 20 15 17 17 21 24 24 25 26 28
47 47 50 50 46 40 40 41 40 41 28 13 21 22 23 24 24 25 25 18 19 16 15 16 18 18 20 21 24 23 23 18 18 19 19 21 17 18 17 18 23 24 25 26 28
47 49 50 50 48 36 38 39 41 42 10 18 21 32 32 23 28 25 28 22 19 18 18 17 18 20 21 19 18 15 19 19 21 20 19 17 14 15 16 15 22 24 25 27 29
47 49 50 47 46 42 41 39 41 32 15 15 25 23 30 28 27 28 28 27 24 20 17 17 21 19 19 22 21 20 20 20 19 18 16 16 14 15 16 17 22 25 26 28 30
47 48 48 44 38 43 45 40 30 18 5 10 21 23 24 24 22 22 23 21 17 16 15 16 16 17 19 17 19 19 19 17 12 11 15 13 10 13 16 26 25 26 27 30 30
46 47 46 45 44 46 45 34 21 5 7 9 17 23 22 21 22 16 11 14 17 14 9 8 7 9 14 18 18 14 14 15 10 10 10 8 6 6 27 27 25 28 30 30 29
45 46 45 44 45 46 41 27 6 10 4 9 16 18 18 16 12 13 8 7 2 4 9 6 4 9 15 15 10 9 9 9 8 9 9 9 8 8 23 27 30 30 31 29 28
42 43 41 47 46 44 36 23 17 8 12 12 10 14 12 14 11 4 7 3 4 7 8 9 7 8 10 13 14 12 11 9 9 8 8 8 7 14 25 27 29 31 31 30 28
43 38 41 47 46 39 30 23 18 11 14 13 11 8 6 6 8 5 6 -0 8 8 11 10 9 9 10 10 8 6 6 8 9 10 10 9 12 27 28 30 29 32 33 31 31
39 33 44 45 36 32 30 23 21 14 15 17 14 7 0 -5 -4 -3 -4 -3 8 8 8 5 9 9 5 8 9 8 7 8 9 9 12 16 18 25 32 33 31 31 34 33 32
36 36 43 43 29 28 24 23 19 17 12 8 7 6 5 3 2 4 5 7 9 11 14 15 10 7 7 8 10 9 9 8 10 12 12 13 14 28 31 30 31 34 34 34 33
36 31 37 40 31 22 22 20 18 20 17 13 8 7 9 4 8 5 7 8 14 14 18 17 15 12 12 10 8 6 6 6 8 19 21 19 21 25 29 31 32 35 34 33 32
34 30 30 30 32 27 21 18 16 19 20 16 13 14 10 11 9 8 8 9 14 17 17 18 14 13 14 14 13 12 11 9 7 8 7 9 9 14 26 35 37 37 34 32 31
35 29 25 20 26 28 26 21 17 17 20 18 15 13 13 12 11 9 13 15 16 22 21 23 22 21 19 18 16 15 14 14 11 7 5 6 8 15 33 37 38 35 33 32 31
34 29 25 23 27 28 28 21 16 19 17 17 17 16 15 16 25 27 28 27 28 26 23 22 21 21 20 18 19 21 21 18 16 16 16 13 20 25 32 34 35 35 34 33 32
Wind_Speed
6 6 7 4 4 5 8 11 13 17 19 21 25 29 30 28 32 11 4 3 8 19 25 16 16 9 12 14 8 11 8 18 13 14 16 13 12 9 14 14 12 10 17 14 12
8 8 9 8 6 4 6 9 12 14 16 20 24 28 32 26 22 14 2 3 9 13 15 18 16 16 12 10 5 7 13 10 11 17 12 8 9 13 8 11 11 15 13 12 11
10 9 10 10 8 6 8 8 12 14 16 20 23 28 33 30 16 5 4 2 8 12 17 18 14 14 13 12 11 8 14 12 11 12 13 6 7 7 13 15 15 14 15 13 12
11 11 12 11 9 7 7 8 10 14 15 19 23 28 37 10 8 6 5 5 9 14 18 12 11 11 10 11 2 8 15 5 11 8 9 9 9 6 12 15 13 16 13 11 11
14 12 11 12 11 9 8 8 10 13 15 17 22 27 15 13 15 7 7 9 9 11 11 12 14 9 10 13 10 15 14 5 5 3 6 4 2 6 10 10 10 11 10 10 10
16 13 12 12 12 10 9 10 11 11 14 17 20 24 15 15 5 2 6 4 7 9 11 9 9 12 11 13 14 11 11 15 11 10 7 7 12 5 14 13 11 11 11 8 7
15 14 13 12 12 12 11 11 12 12 14 15 17 13 18 22 10 10 8 9 5 7 8 7 10 11 16 14 6 10 16 18 19 17 15 11 16 19 18 16 13 12 10 9 7
7 11 13 13 11 12 12 13 14 15 15 15 14 10 9 15 8 13 12 13 8 8 8 7 10 13 14 13 16 19 19 20 17 20 16 10 14 7 25 20 15 15 12 11 9
3 3 6 8 9 10 10 13 18 20 15 16 10 10 13 2 10 6 5 10 9 7 6 8 10 14 14 13 16 17 20 20 18 10 12 16 12 19 17 15 15 15 13 11 10
7 7 7 6 8 10 10 15 15 13 15 15 14 9 10 12 2 5 6 8 8 8 8 10 8 14 14 15 19 21 16 13 15 10 9 15 16 16 18 19 18 18 16 14 13
10 8 8 6 7 8 9 12 9 7 10 11 5 8 3 5 3 7 6 7 11 12 14 14 12 16 19 21 22 11 13 17 18 10 7 13 17 20 23 19 18 18 17 16 14
5 6 6 4 6 6 6 8 6 6 11 19 24 23 18 4 9 14 5 7 12 16 16 17 21 19 21 11 10 12 18 21 23 22 23 18 20 20 16 27 25 23 20 18 16
6 5 4 5 2 3 14 16 7 7 8 16 22 23 17 16 21 20 15 13 16 18 16 21 18 4 7 12 14 17 19 21 25 25 29 24 24 23 23 22 24 20 21 21 20
8 5 5 4 3 13 14 17 2 3 7 10 8 6 10 7 8 18 22 18 18 20 19 17 21 22 17 18 17 24 21 25 24 22 25 20 32 24 25 18 25 24 21 18 17
8 6 9 16 13 9 4 4 2 2 7 10 9 5 7 14 3 5 5 15 19 20 9 11 9 10 16 17 17 23 10 17 13 19 23 27 19 34 21 22 26 24 20 17 16
10 7 6 4 8 7 2 2 2 3 10 7 8 9 11 14 7 5 4 6 8 16 19 20 16 17 14 11 14 15 11 17 19 18 24 28 22 31 25 22 5 25 22 17 17
10 10 8 8 2 7 2 4 4 11 0 9 7 13 15 11 11 10 10 9 9 7 13 18 22 22 19 17 14 14 12 12 9 16 22 23 23 22 20 9 7 29 26 21 20
8 11 9 10 3 1 3 5 11 12 26 2 5 11 14 13 12 11 7 12 16 14 13 13 15 14 13 15 13 16 15 16 19 20 21 28 20 24 10 8 7 16 25 23 19
8 9 9 9 3 5 6 10 13 13 13 9 8 12 14 13 3 8 11 14 13 11 10 7 9 7 7 4 8 8 18 19 22 23 23 22 28 28 10 14 18 19 18 16 15
11 9 10 12 7 7 10 16 10 3 6 4 15 14 16 14 11 6 7 2 9 10 6 8 15 15 12 9 14 16 17 18 17 22 25 22 25 11 9 9 11 12 12 11 14
12 6 12 14 9 9 17 11 16 1 4 4 11 6 10 13 15 12 7 4 4 4 4 9 11 15 17 17 19 18 21 20 22 20 24 26 19 6 6 4 13 15 16 13 13
7 7 13 14 11 12 20 21 17 6 6 5 5 6 11 10 8 12 14 10 3 3 9 11 7 15 18 18 20 19 22 23 22 24 22 22 24 13 1 2 8 20 18 16 13
8 4 6 13 14 17 16 24 18 11 11 7 5 5 3 8 7 12 15 12 2 5 2 6 5 13 14 15 21 18 22 25 20 20 26 23 27 6 1 4 7 18 20 16 16
8 6 5 9 17 21 19 19 23 9 12 16 8 12 9 15 14 7 7 5 4 4 10 2 12 16 21 18 22 28 28 28 26 16 24 26 25 27 18 18 15 22 23 22 20
8 8 11 14 22 22 20 18 22 16 12 12 11 18 14 12 15 18 17 16 9 12 9 7 20 19 26 27 26 30 31 30 30 30 30 28 28 23 18 22 20 25 22 22 21
8 7 12 9 22 22 19 19 21 19 14 17 21 14 16 18 16 12 8 9 10 7 11 15 25 20 33 24 27 32 32 31 31 31 31 30 34 19 12 9 14 21 22 20 17
16 16 13 8 19 17 23 23 19 17 18 19 11 16 10 9 6 9 8 8 10 11 14 18 20 21 35 20 23 24 16 24 29 28 26 25 21 16 3 10 19 20 20 20 20
Wind_Direction
243 261 272 276 308 340 347 350 350 350 343 341 339 334 331 328 323 288 336 352 329 322 320 294 321 319 294 266 254 277 264 263 301 306 100 118 104 53 77 75 54 68 80 113 137
243 248 263 266 279 312 335 343 342 344 339 336 337 332 327 335 314 291 121 29 316 320 325 332 328 322 307 255 247 244 266 309 358 355 105 136 169 138 121 107 103 101 104 123 138
244 250 260 274 282 306 321 333 333 338 340 335 335 328 327 327 293 100 175 294 294 300 293 295 295 297 298 285 276 281 268 351 337 11 350 141 111 89 200 166 154 137 134 132 125
240 248 260 268 272 282 298 314 325 329 336 334 332 331 326 315 313 99 161 252 293 290 287 312 319 302 296 292 214 293 285 331 324 29 327 335 166 173 41 74 104 130 139 138 133
232 243 250 264 272 280 291 300 312 322 327 331 331 331 337 321 286 135 204 228 273 284 299 314 301 326 289 325 306 271 269 264 277 265 272 333 245 158 123 113 117 131 142 141 136
239 241 247 253 269 272 280 293 304 313 319 326 328 330 313 288 18 330 289 285 266 310 311 317 326 320 289 281 282 321 309 294 276 229 218 236 227 145 148 146 153 158 151 142 138
237 242 250 256 259 267 274 284 291 298 303 311 317 324 297 260 289 292 279 281 293 286 300 321 315 308 319 293 349 286 277 269 252 244 232 196 256 220 159 165 168 180 158 139 135
216 247 248 252 255 266 275 284 288 285 286 292 300 305 265 304 308 291 265 262 241 264 271 292 297 288 273 283 288 266 263 266 259 233 207 158 261 279 143 166 178 181 167 162 159
218 228 264 258 257 260 270 279 277 273 268 278 282 209 278 165 249 252 273 254 242 233 253 289 283 265 274 264 278 248 251 266 259 219 185 185 252 136 157 178 190 187 179 183 162
213 230 242 265 280 275 272 266 271 272 264 255 250 283 254 249 92 280 267 270 244 235 242 238 243 247 244 246 258 268 297 265 262 196 209 228 227 169 183 186 197 193 192 187 178
234 202 236 241 252 270 289 272 260 219 207 228 222 236 279 211 270 235 218 233 242 251 246 237 241 249 255 264 255 296 293 289 296 299 224 256 273 271 182 198 204 199 198 198 188
222 259 258 244 271 267 264 250 320 340 294 248 252 258 267 259 271 246 182 243 229 243 250 245 243 256 283 296 297 280 282 283 283 276 274 253 255 273 235 196 207 201 197 194 185
220 229 265 268 211 242 239 249 300 327 264 276 245 237 238 229 248 248 218 230 257 261 246 257 262 174 296 291 270 264 268 277 281 289 288 289 260 263 254 207 199 205 199 192 188
208 232 211 190 219 223 230 249 43 320 275 247 199 242 214 228 253 240 245 252 238 250 263 270 272 263 284 279 264 272 283 291 301 306 289 271 285 280 285 223 186 202 197 193 176
208 217 212 207 321 207 34 110 101 252 284 105 128 92 154 194 91 154 249 228 237 237 219 242 279 265 276 271 276 274 320 311 314 297 302 277 283 284 291 285 193 195 189 182 145
196 213 213 225 244 330 52 107 199 229 244 187 144 186 180 210 229 117 172 240 232 245 260 260 271 280 255 267 288 299 305 289 276 264 261 277 271 272 281 278 309 180 174 160 148
207 206 211 272 257 35 351 193 179 224 158 196 195 187 197 183 192 196 172 189 196 193 233 243 243 245 244 254 269 255 257 276 274 257 255 268 266 260 288 48 348 164 163 152 134
207 199 233 249 310 32 245 180 224 225 233 2 184 189 204 167 214 208 220 229 212 248 279 279 276 252 196 215 246 270 248 244 275 284 294 299 288 296 71 33 334 152 133 129 135
175 209 237 224 210 215 184 205 209 236 286 182 195 194 200 184 303 208 246 259 265 224 223 299 266 149 130 219 249 259 246 265 273 275 279 274 277 271 135 72 63 90 103 127 138
181 201 221 177 180 185 207 229 228 292 331 260 207 201 204 199 193 206 249 269 249 265 276 274 275 276 287 213 232 244 272 286 276 276 268 273 284 313 45 110 125 131 136 146 150
187 196 155 158 160 191 214 225 248 108 303 278 238 210 242 234 216 219 228 273 249 272 233 285 276 273 276 253 259 269 258 252 247 251 266 273 273 96 57 118 190 168 158 168 153
195 206 165 157 177 204 224 220 257 249 225 268 292 267 219 243 244 242 262 251 101 323 281 266 287 274 264 276 286 286 277 275 271 280 282 271 266 274 6 295 182 171 166 161 151
189 153 166 190 202 209 224 225 241 233 227 240 250 245 268 257 257 252 260 273 289 198 288 348 268 270 274 259 240 240 259 260 261 270 263 277 276 18 349 265 208 159 158 147 125
142 150 170 205 236 212 207 224 218 221 259 250 253 251 238 244 245 253 251 258 205 243 94 342 261 261 266 277 305 295 289 292 294 278 280 269 276 285 272 226 191 154 168 167 155
197 196 186 195 213 226 223 216 224 206 221 262 235 239 225 238 236 244 249 255 218 202 228 236 257 265 271 279 282 277 275 275 275 281 281 290 286 285 274 223 208 163 164 166 172
181 177 191 231 196 213 235 233 229 220 192 226 235 234 231 241 245 258 266 253 257 286 227 233 261 266 271 270 274 276 272 267 262 261 264 272 275 288 37 141 161 161 162 173 172
215 224 216 211 174 192 218 226 247 230 232 221 234 236 242 244 330 345 329 295 274 276 267 268 267 258 267 282 288 278 276 279 281 281 282 282 301 321 332 198 191 176 181 179 172